{"data":{"norad_id":67028,"epoch":"2026-09-20T11:43:00.293376Z","epoch_age_seconds":82492,"freshness":"FRESH","line1":"1 67028U 25293AB  26263.48819784  .00000408  00000+0  41989-4 0  9998","line2":"2 67028  70.0037 323.4214 0003615 268.9989  91.0756 14.98332729 44067","mean_motion":14.98332729,"eccentricity":0.0003615,"inclination_deg":70.0037,"raan_deg":323.4214,"arg_perigee_deg":268.9989,"mean_anomaly_deg":91.0756,"bstar":4.1989e-5,"rev_number":4406,"period_min":96.106824080461,"perigee_km":569.53496007053,"apogee_km":574.55994342915,"semimajor_km":6950.1844517498,"source":"CELESTRAK","updated_at":"2026-09-21T09:00:36.073775Z"}}